When you browse on this site, cookies collect data to enhance your experience and personalize the content and advertising you see.
Visit our Privacy Policy to learn more. By continuing to use the site, you agree to this use of cookies and data.
  • In United Kingdom
  • List of Countries
  • For 7 days
  • Water Temperature
  • Weather Map
  • Weather Widgets
  • user-avatar
    Login

    Hourly Weather Surty

    Today, 25 August, Sunday

    Time Temperature Precipitation Wind Pressure Humidity
    00:00 +15°C° 0.1 mm 5 mps 752 mmHg 78%
    01:00 +15°C° 0.6 mm 4 mps 751 mmHg 84%
    02:00 +14°C° 0.6 mm 4 mps 751 mmHg 90%
    03:00 +14°C° 0 mm 4 mps 751 mmHg 95%
    04:00 +13°C° 0 mm 4 mps 751 mmHg 95%
    05:00 +13°C° 0 mm 4 mps 751 mmHg 94%
    06:00 +13°C° 0 mm 5 mps 751 mmHg 94%
    07:00 +13°C° 0 mm 5 mps 751 mmHg 91%
    08:00 +14°C° 0 mm 5 mps 751 mmHg 89%
    09:00 +14°C° 0 mm 5 mps 751 mmHg 85%
    10:00 +14°C° 0.1 mm 5 mps 752 mmHg 84%
    11:00 +14°C° 0.1 mm 5 mps 752 mmHg 83%
    12:00 +15°C° 0.1 mm 5 mps 752 mmHg 81%
    13:00 +15°C° 0.2 mm 6 mps 752 mmHg 80%
    14:00 +16°C° 0.2 mm 6 mps 753 mmHg 78%
    15:00 +16°C° 0 mm 6 mps 753 mmHg 77%
    16:00 +15°C° 0.1 mm 6 mps 754 mmHg 78%
    17:00 +15°C° 0.1 mm 5 mps 754 mmHg 79%
    18:00 +14°C° 0.1 mm 5 mps 754 mmHg 80%
    19:00 +13°C° 0 mm 5 mps 755 mmHg 82%
    20:00 +13°C° 0 mm 5 mps 756 mmHg 85%
    21:00 +12°C° 0 mm 5 mps 756 mmHg 87%
    22:00 +11°C° 0 mm 4 mps 757 mmHg 88%
    23:00 +10°C° 0 mm 4 mps 757 mmHg 89%

    Tomorrow, 26 August, Monday

    Time Temperature Precipitation Wind Pressure Humidity
    00:00 +9°C° 0 mm 3 mps 757 mmHg 90%
    01:00 +9°C° 0 mm 3 mps 757 mmHg 91%
    02:00 +8°C° 0 mm 3 mps 758 mmHg 93%
    03:00 +8°C° 0 mm 3 mps 758 mmHg 95%
    04:00 +8°C° 0 mm 3 mps 758 mmHg 94%
    05:00 +8°C° 0 mm 3 mps 759 mmHg 94%
    06:00 +8°C° 0 mm 3 mps 759 mmHg 94%
    07:00 +9°C° 0 mm 3 mps 759 mmHg 87%
    08:00 +11°C° 0 mm 3 mps 759 mmHg 81%
    09:00 +13°C° 0 mm 3 mps 759 mmHg 74%
    10:00 +13°C° 0 mm 3 mps 759 mmHg 70%
    11:00 +14°C° 0 mm 3 mps 758 mmHg 66%
    12:00 +16°C° 0 mm 3 mps 758 mmHg 62%
    13:00 +17°C° 0 mm 3 mps 758 mmHg 61%
    14:00 +17°C° 0 mm 3 mps 758 mmHg 59%
    15:00 +17°C° 0 mm 3 mps 758 mmHg 57%
    16:00 +17°C° 0 mm 3 mps 757 mmHg 63%
    17:00 +16°C° 0 mm 2 mps 756 mmHg 69%
    18:00 +15°C° 0 mm 2 mps 756 mmHg 74%
    19:00 +14°C° 0 mm 2 mps 755 mmHg 75%
    20:00 +13°C° 0 mm 3 mps 755 mmHg 76%
    21:00 +13°C° 0 mm 3 mps 755 mmHg 76%
    22:00 +13°C° 0.1 mm 3 mps 754 mmHg 80%
    23:00 +13°C° 0.1 mm 4 mps 753 mmHg 84%

    Day after tomorrow, 27 August, Tuesday

    Time Temperature Precipitation Wind Pressure Humidity
    00:00 +13°C° 0.1 mm 4 mps 752 mmHg 88%
    01:00 +12°C° 0.7 mm 4 mps 752 mmHg 90%
    02:00 +12°C° 0.7 mm 4 mps 751 mmHg 93%
    03:00 +12°C° 0.7 mm 5 mps 750 mmHg 95%
    04:00 +12°C° 1.2 mm 5 mps 749 mmHg 95%
    05:00 +11°C° 1.2 mm 6 mps 749 mmHg 96%
    06:00 +11°C° 1.2 mm 6 mps 748 mmHg 96%
    07:00 +13°C° 0.8 mm 5 mps 747 mmHg 95%
    08:00 +13°C° 0.8 mm 5 mps 747 mmHg 94%
    09:00 +13°C° 0.8 mm 4 mps 747 mmHg 93%
    10:00 +14°C° 0.6 mm 5 mps 747 mmHg 89%
    11:00 +15°C° 0.6 mm 5 mps 747 mmHg 84%
    12:00 +16°C° 0.6 mm 6 mps 746 mmHg 80%
    13:00 +16°C° 0.3 mm 6 mps 746 mmHg 79%
    14:00 +16°C° 0.3 mm 5 mps 747 mmHg 77%
    15:00 +15°C° 0.3 mm 5 mps 747 mmHg 76%
    16:00 +14°C° 0.2 mm 5 mps 747 mmHg 80%
    17:00 +14°C° 0.2 mm 5 mps 747 mmHg 84%
    18:00 +13°C° 0.2 mm 5 mps 746 mmHg 88%
    19:00 +12°C° 0.1 mm 5 mps 747 mmHg 87%
    20:00 +10°C° 0.1 mm 5 mps 747 mmHg 86%
    21:00 +9°C° 0.1 mm 6 mps 747 mmHg 85%
    22:00 +8°C° 0 mm 5 mps 747 mmHg 83%
    23:00 +7°C° 0 mm 5 mps 747 mmHg 82%

    28 August, Wednesday

    Time Temperature Precipitation Wind Pressure Humidity
    00:00 +6°C° 0 mm 5 mps 747 mmHg 81%
    01:00 +6°C° 0.1 mm 5 mps 747 mmHg 82%
    02:00 +5°C° 0.1 mm 5 mps 747 mmHg 84%
    03:00 +5°C° 0.1 mm 5 mps 747 mmHg 86%
    04:00 +5°C° 0.1 mm 5 mps 747 mmHg 87%
    05:00 +4°C° 0.1 mm 6 mps 747 mmHg 88%
    06:00 +4°C° 0.1 mm 6 mps 747 mmHg 89%
    07:00 +5°C° 0 mm 6 mps 747 mmHg 88%
    08:00 +7°C° 0 mm 6 mps 748 mmHg 87%
    09:00 +7°C° 0 mm 6 mps 748 mmHg 87%
    10:00 +8°C° 0.1 mm 7 mps 748 mmHg 85%
    11:00 +8°C° 0.1 mm 7 mps 749 mmHg 84%
    12:00 +7°C° 0.1 mm 8 mps 749 mmHg 82%
    13:00 +7°C° 0 mm 8 mps 750 mmHg 80%
    14:00 +9°C° 0 mm 8 mps 750 mmHg 77%
    15:00 +9°C° 0 mm 8 mps 751 mmHg 75%
    16:00 +7°C° 0 mm 8 mps 751 mmHg 74%
    17:00 +7°C° 0 mm 8 mps 752 mmHg 73%
    18:00 +7°C° 0 mm 8 mps 752 mmHg 72%
    19:00 +8°C° 0 mm 7 mps 752 mmHg 71%
    20:00 +8°C° 0 mm 7 mps 753 mmHg 70%
    21:00 +8°C° 0 mm 7 mps 753 mmHg 70%
    22:00 +6°C° 0 mm 7 mps 753 mmHg 73%
    23:00 +5°C° 0 mm 6 mps 753 mmHg 75%

    29 August, Thursday

    Time Temperature Precipitation Wind Pressure Humidity
    00:00 +5°C° 0 mm 6 mps 753 mmHg 78%
    01:00 +4°C° 0 mm 6 mps 753 mmHg 79%
    02:00 +4°C° 0 mm 6 mps 753 mmHg 81%
    03:00 +3°C° 0 mm 6 mps 753 mmHg 82%
    04:00 +3°C° 0 mm 6 mps 754 mmHg 81%
    05:00 +3°C° 0 mm 6 mps 754 mmHg 81%
    06:00 +3°C° 0 mm 6 mps 754 mmHg 81%
    07:00 +4°C° 0 mm 6 mps 754 mmHg 76%
    08:00 +7°C° 0 mm 6 mps 754 mmHg 72%
    09:00 +8°C° 0 mm 6 mps 754 mmHg 67%
    10:00 +9°C° 0 mm 6 mps 754 mmHg 64%
    11:00 +10°C° 0 mm 6 mps 754 mmHg 61%
    12:00 +11°C° 0 mm 6 mps 754 mmHg 58%
    13:00 +11°C° 0 mm 6 mps 754 mmHg 59%
    14:00 +11°C° 0 mm 6 mps 755 mmHg 59%
    15:00 +11°C° 0 mm 6 mps 755 mmHg 60%
    16:00 +10°C° 0 mm 5 mps 755 mmHg 64%
    17:00 +10°C° 0 mm 4 mps 755 mmHg 67%
    18:00 +8°C° 0 mm 4 mps 755 mmHg 71%
    19:00 +8°C° 0 mm 3 mps 755 mmHg 74%
    20:00 +7°C° 0 mm 3 mps 756 mmHg 77%
    21:00 +5°C° 0 mm 3 mps 756 mmHg 81%
    22:00 +5°C° 0 mm 3 mps 756 mmHg 82%
    23:00 +4°C° 0 mm 3 mps 756 mmHg 83%

    30 August, Friday

    Time Temperature Precipitation Wind Pressure Humidity
    00:00 +4°C° 0 mm 3 mps 756 mmHg 85%
    01:00 +4°C° 0 mm 3 mps 756 mmHg 86%
    02:00 +3°C° 0 mm 3 mps 756 mmHg 87%
    03:00 +3°C° 0 mm 3 mps 756 mmHg 88%
    04:00 +3°C° 0 mm 3 mps 756 mmHg 88%
    05:00 +3°C° 0 mm 3 mps 756 mmHg 89%
    06:00 +3°C° 0 mm 4 mps 756 mmHg 90%
    07:00 +4°C° 0 mm 4 mps 757 mmHg 83%
    08:00 +6°C° 0 mm 4 mps 757 mmHg 77%
    09:00 +7°C° 0 mm 4 mps 757 mmHg 70%
    10:00 +8°C° 0 mm 4 mps 757 mmHg 67%
    11:00 +10°C° 0 mm 4 mps 757 mmHg 64%
    12:00 +11°C° 0 mm 4 mps 757 mmHg 61%
    13:00 +12°C° 0 mm 4 mps 757 mmHg 61%
    14:00 +12°C° 0 mm 4 mps 757 mmHg 61%
    15:00 +12°C° 0 mm 4 mps 757 mmHg 61%
    16:00 +11°C° 0 mm 3 mps 757 mmHg 66%
    17:00 +10°C° 0 mm 3 mps 757 mmHg 71%
    18:00 +9°C° 0 mm 2 mps 757 mmHg 76%
    19:00 +8°C° 0 mm 2 mps 757 mmHg 80%
    20:00 +6°C° 0 mm 2 mps 757 mmHg 85%
    21:00 +5°C° 0 mm 2 mps 757 mmHg 89%
    22:00 +5°C° 0 mm 2 mps 757 mmHg 90%
    23:00 +5°C° 0 mm 2 mps 757 mmHg 90%
    Show more